When you browse on this site, cookies collect data to enhance your experience and personalize the content and advertising you see.
Visit our Privacy Policy to learn more. By continuing to use the site, you agree to this use of cookies and data.
  • în România
  • Lista ţărilor
  • Pe 7 zile
  • Temperatura apei
  • Hartă satelitară
  • Meteo pe hartă
  • Widget-uri
  • user-avatar
    Intrare

    Meteo pe oră la Crete

    Astăzi, 24 Mai, Vineri

    Timp Temperatura Precipitaţii Vânt Presiune Umiditate
    00:00 +18°C° 0 mm 2 m/s 705 mmHg 64%
    01:00 +17°C° 0 mm 2 m/s 705 mmHg 62%
    02:00 +16°C° 0 mm 2 m/s 705 mmHg 58%
    03:00 +16°C° 0 mm 2 m/s 705 mmHg 59%
    04:00 +15°C° 0 mm 2 m/s 705 mmHg 59%
    05:00 +15°C° 0 mm 2 m/s 705 mmHg 59%
    06:00 +16°C° 0 mm 2 m/s 705 mmHg 54%
    07:00 +18°C° 0 mm 2 m/s 705 mmHg 49%
    08:00 +20°C° 0 mm 3 m/s 706 mmHg 44%
    09:00 +20°C° 0 mm 4 m/s 706 mmHg 44%
    10:00 +21°C° 0 mm 4 m/s 707 mmHg 43%
    11:00 +22°C° 0 mm 5 m/s 707 mmHg 43%
    12:00 +22°C° 0 mm 5 m/s 707 mmHg 44%
    13:00 +22°C° 0 mm 6 m/s 707 mmHg 46%
    14:00 +22°C° 0 mm 6 m/s 707 mmHg 47%
    15:00 +21°C° 0 mm 6 m/s 707 mmHg 50%
    16:00 +21°C° 0 mm 6 m/s 707 mmHg 53%
    17:00 +20°C° 0 mm 6 m/s 707 mmHg 55%
    18:00 +19°C° 0 mm 5 m/s 707 mmHg 61%
    19:00 +17°C° 0 mm 4 m/s 707 mmHg 67%
    20:00 +16°C° 0 mm 3 m/s 707 mmHg 73%
    21:00 +16°C° 0 mm 2 m/s 707 mmHg 75%
    22:00 +15°C° 0 mm 2 m/s 707 mmHg 77%
    23:00 +15°C° 0 mm 2 m/s 707 mmHg 79%

    Mâine, 25 Mai, Sâmbătă

    Timp Temperatura Precipitaţii Vânt Presiune Umiditate
    00:00 +14°C° 0 mm 2 m/s 707 mmHg 80%
    01:00 +14°C° 0 mm 1 m/s 707 mmHg 81%
    02:00 +14°C° 0 mm 1 m/s 707 mmHg 82%
    03:00 +14°C° 0 mm 1 m/s 707 mmHg 82%
    04:00 +13°C° 0 mm 1 m/s 707 mmHg 82%
    05:00 +13°C° 0 mm 1 m/s 707 mmHg 82%
    06:00 +15°C° 0 mm 1 m/s 707 mmHg 73%
    07:00 +18°C° 0 mm 1 m/s 708 mmHg 64%
    08:00 +20°C° 0 mm 1 m/s 708 mmHg 55%
    09:00 +21°C° 0 mm 1 m/s 709 mmHg 51%
    10:00 +22°C° 0 mm 1 m/s 709 mmHg 47%
    11:00 +23°C° 0 mm 2 m/s 709 mmHg 44%
    12:00 +24°C° 0 mm 2 m/s 709 mmHg 45%
    13:00 +24°C° 0 mm 2 m/s 710 mmHg 47%
    14:00 +24°C° 0 mm 3 m/s 710 mmHg 49%
    15:00 +22°C° 0 mm 3 m/s 709 mmHg 52%
    16:00 +22°C° 0 mm 3 m/s 709 mmHg 55%
    17:00 +21°C° 0 mm 3 m/s 709 mmHg 58%
    18:00 +20°C° 0 mm 2 m/s 708 mmHg 64%
    19:00 +19°C° 0 mm 2 m/s 708 mmHg 69%
    20:00 +18°C° 0 mm 1 m/s 708 mmHg 75%
    21:00 +18°C° 0 mm 1 m/s 708 mmHg 77%
    22:00 +16°C° 0 mm 1 m/s 709 mmHg 79%
    23:00 +15°C° 0 mm 0 m/s 709 mmHg 80%

    Poimâine, 26 Mai, Duminică

    Timp Temperatura Precipitaţii Vânt Presiune Umiditate
    00:00 +15°C° 0 mm 0 m/s 708 mmHg 81%
    01:00 +14°C° 0 mm 0 m/s 708 mmHg 82%
    02:00 +14°C° 0 mm 0 m/s 708 mmHg 83%
    03:00 +14°C° 0 mm 0 m/s 708 mmHg 83%
    04:00 +15°C° 0 mm 1 m/s 707 mmHg 84%
    05:00 +15°C° 0 mm 1 m/s 707 mmHg 84%
    06:00 +16°C° 0 mm 1 m/s 708 mmHg 76%
    07:00 +19°C° 0 mm 1 m/s 708 mmHg 69%
    08:00 +21°C° 0 mm 1 m/s 708 mmHg 61%
    09:00 +21°C° 0 mm 1 m/s 709 mmHg 58%
    10:00 +21°C° 0 mm 2 m/s 709 mmHg 55%
    11:00 +23°C° 0 mm 2 m/s 710 mmHg 51%
    12:00 +23°C° 0 mm 2 m/s 709 mmHg 53%
    13:00 +23°C° 0 mm 2 m/s 709 mmHg 54%
    14:00 +23°C° 0 mm 2 m/s 709 mmHg 55%
    15:00 +23°C° 0 mm 2 m/s 709 mmHg 55%
    16:00 +23°C° 0 mm 2 m/s 709 mmHg 55%
    17:00 +23°C° 0 mm 2 m/s 709 mmHg 54%
    18:00 +21°C° 0 mm 2 m/s 708 mmHg 60%
    19:00 +21°C° 0 mm 1 m/s 708 mmHg 65%
    20:00 +19°C° 0 mm 1 m/s 708 mmHg 71%
    21:00 +19°C° 0 mm 1 m/s 708 mmHg 73%
    22:00 +18°C° 0 mm 1 m/s 708 mmHg 74%
    23:00 +18°C° 0 mm 1 m/s 708 mmHg 76%

    27 Mai, Luni

    Timp Temperatura Precipitaţii Vânt Presiune Umiditate
    00:00 +18°C° 0 mm 1 m/s 707 mmHg 77%
    01:00 +18°C° 0 mm 1 m/s 707 mmHg 77%
    02:00 +16°C° 0 mm 1 m/s 707 mmHg 78%
    03:00 +16°C° 0 mm 1 m/s 707 mmHg 77%
    04:00 +16°C° 0 mm 1 m/s 707 mmHg 76%
    05:00 +16°C° 0 mm 1 m/s 706 mmHg 75%
    06:00 +19°C° 0 mm 1 m/s 707 mmHg 67%
    07:00 +21°C° 0 mm 1 m/s 707 mmHg 58%
    08:00 +23°C° 0 mm 2 m/s 708 mmHg 50%
    09:00 +24°C° 0 mm 2 m/s 708 mmHg 45%
    10:00 +25°C° 0 mm 2 m/s 708 mmHg 41%
    11:00 +26°C° 0 mm 3 m/s 709 mmHg 36%
    12:00 +27°C° 0 mm 3 m/s 709 mmHg 36%
    13:00 +27°C° 0 mm 3 m/s 709 mmHg 35%
    14:00 +28°C° 0 mm 3 m/s 709 mmHg 34%
    15:00 +27°C° 0 mm 3 m/s 708 mmHg 36%
    16:00 +26°C° 0 mm 3 m/s 708 mmHg 37%
    17:00 +26°C° 0 mm 2 m/s 708 mmHg 38%
    18:00 +24°C° 0.1 mm 2 m/s 708 mmHg 42%
    19:00 +23°C° 0.1 mm 2 m/s 707 mmHg 46%
    20:00 +21°C° 0.1 mm 2 m/s 707 mmHg 50%
    21:00 +21°C° 0.1 mm 2 m/s 707 mmHg 44%
    22:00 +21°C° 0.1 mm 2 m/s 707 mmHg 39%
    23:00 +21°C° 0.1 mm 3 m/s 707 mmHg 33%

    28 Mai, Marţi

    Timp Temperatura Precipitaţii Vânt Presiune Umiditate
    00:00 +21°C° 0 mm 2 m/s 707 mmHg 35%
    01:00 +20°C° 0 mm 2 m/s 707 mmHg 36%
    02:00 +20°C° 0 mm 2 m/s 707 mmHg 37%
    03:00 +20°C° 0 mm 2 m/s 707 mmHg 38%
    04:00 +19°C° 0 mm 2 m/s 707 mmHg 39%
    05:00 +20°C° 0 mm 1 m/s 707 mmHg 40%
    06:00 +21°C° 0 mm 1 m/s 707 mmHg 38%
    07:00 +23°C° 0 mm 1 m/s 708 mmHg 35%
    08:00 +25°C° 0 mm 1 m/s 708 mmHg 33%
    09:00 +26°C° 0 mm 2 m/s 708 mmHg 31%
    10:00 +27°C° 0 mm 2 m/s 709 mmHg 30%
    11:00 +28°C° 0 mm 2 m/s 709 mmHg 29%
    12:00 +28°C° 0 mm 2 m/s 709 mmHg 31%
    13:00 +28°C° 0 mm 2 m/s 709 mmHg 33%
    14:00 +28°C° 0 mm 2 m/s 709 mmHg 35%
    15:00 +27°C° 0.2 mm 2 m/s 709 mmHg 39%
    16:00 +26°C° 0.2 mm 1 m/s 709 mmHg 43%
    17:00 +25°C° 0.2 mm 1 m/s 708 mmHg 48%
    18:00 +24°C° 0.2 mm 1 m/s 708 mmHg 54%
    19:00 +23°C° 0.2 mm 1 m/s 708 mmHg 59%
    20:00 +22°C° 0.2 mm 1 m/s 708 mmHg 65%
    21:00 +22°C° 0 mm 1 m/s 709 mmHg 66%
    22:00 +22°C° 0 mm 1 m/s 709 mmHg 67%
    23:00 +21°C° 0 mm 1 m/s 709 mmHg 68%

    29 Mai, Miercuri

    Timp Temperatura Precipitaţii Vânt Presiune Umiditate
    00:00 +21°C° 0 mm 1 m/s 709 mmHg 69%
    01:00 +21°C° 0 mm 1 m/s 708 mmHg 69%
    02:00 +20°C° 0 mm 1 m/s 708 mmHg 70%
    03:00 +19°C° 0 mm 2 m/s 708 mmHg 69%
    04:00 +19°C° 0 mm 2 m/s 708 mmHg 68%
    05:00 +18°C° 0 mm 2 m/s 708 mmHg 68%
    06:00 +20°C° 0 mm 2 m/s 709 mmHg 61%
    07:00 +23°C° 0 mm 2 m/s 709 mmHg 53%
    08:00 +25°C° 0 mm 1 m/s 710 mmHg 46%
    09:00 +26°C° 0 mm 2 m/s 710 mmHg 43%
    10:00 +27°C° 0 mm 2 m/s 710 mmHg 40%
    11:00 +29°C° 0 mm 2 m/s 710 mmHg 37%
    12:00 +29°C° 0 mm 2 m/s 710 mmHg 38%
    13:00 +29°C° 0 mm 2 m/s 710 mmHg 38%
    14:00 +29°C° 0 mm 2 m/s 710 mmHg 39%
    15:00 +28°C° 0 mm 2 m/s 710 mmHg 41%
    16:00 +28°C° 0 mm 2 m/s 710 mmHg 42%
    17:00 +27°C° 0 mm 2 m/s 710 mmHg 44%
    18:00 +25°C° 0 mm 1 m/s 710 mmHg 50%
    19:00 +24°C° 0 mm 1 m/s 710 mmHg 55%
    20:00 +22°C° 0 mm 1 m/s 709 mmHg 61%
    21:00 +22°C° 0 mm 1 m/s 709 mmHg 63%
    22:00 +21°C° 0 mm 1 m/s 709 mmHg 64%
    23:00 +21°C° 0 mm 1 m/s 709 mmHg 66%
    Arată mai mult